| time (UTC) | temp F | wind direction | speed MPH | gust MPH | rain 1hr in | rain 24hr in | rain mn in | humidity % | barometer mb |
| 20260508044704 | 37 | 255 | 0.0 | 0.0 | 0.00 | 0.00 | 0.00 | 93 | 1012.7 |
| 20260508044204 | 37 | 255 | 0.0 | 0.0 | 0.00 | 0.00 | 0.00 | 94 | 1012.6 |
| 20260508043705 | 37 | 255 | 0.0 | 0.0 | 0.00 | 0.00 | 0.00 | 93 | 1012.6 |
| 20260508043204 | 37 | 255 | 0.0 | 0.0 | 0.00 | 0.00 | 0.00 | 93 | 1012.6 |
| 20260508042704 | 37 | 255 | 0.0 | 0.0 | 0.00 | 0.00 | 0.00 | 93 | 1012.5 |
| 20260508042204 | 37 | 255 | 0.0 | 0.0 | 0.00 | 0.00 | 0.00 | 92 | 1012.5 |
| 20260508041704 | 37 | 255 | 0.0 | 0.0 | 0.00 | 0.00 | 0.00 | 92 | 1012.5 |
| 20260508040204 | 37 | 255 | 0.0 | 0.0 | 0.00 | 0.00 | 0.00 | 91 | 1012.4 |
| 20260508035705 | 37 | 255 | 0.0 | 0.0 | 0.00 | 0.00 | 0.00 | 91 | 1012.4 |
| 20260508035203 | 38 | 255 | 0.0 | 0.0 | 0.00 | 0.00 | 0.00 | 90 | 1012.3 |
| 20260508034704 | 38 | 255 | 0.0 | 0.0 | 0.00 | 0.00 | 0.00 | 90 | 1012.3 |
| 20260508034204 | 38 | 255 | 0.0 | 0.0 | 0.00 | 0.00 | 0.00 | 90 | 1012.4 |
| 20260508033704 | 38 | 255 | 0.0 | 0.0 | 0.00 | 0.00 | 0.00 | 89 | 1012.3 |
| 20260508033204 | 38 | 255 | 0.0 | 0.0 | 0.00 | 0.00 | 0.00 | 89 | 1012.3 |
| 20260508032703 | 38 | 255 | 0.0 | 0.0 | 0.00 | 0.00 | 0.00 | 88 | 1012.3 |
| 20260508032204 | 39 | 255 | 0.0 | 0.0 | 0.00 | 0.00 | 0.00 | 87 | 1012.3 |
| 20260508031703 | 39 | 255 | 0.0 | 0.0 | 0.00 | 0.00 | 0.00 | 87 | 1012.3 |
| 20260508031204 | 39 | 255 | 0.0 | 0.0 | 0.00 | 0.00 | 0.00 | 86 | 1012.4 |
| 20260508030704 | 39 | 255 | 0.0 | 0.0 | 0.00 | 0.00 | 0.00 | 86 | 1012.4 |
| 20260508030204 | 40 | 255 | 0.0 | 0.0 | 0.00 | 0.00 | 0.00 | 86 | 1012.4 |
| 20260508025704 | 40 | 255 | 0.0 | 0.0 | 0.00 | 0.00 | 0.00 | 86 | 1012.4 |
| 20260508025204 | 40 | 255 | 0.0 | 0.0 | 0.00 | 0.00 | 0.00 | 85 | 1012.5 |
| 20260508024704 | 40 | 255 | 0.0 | 0.0 | 0.00 | 0.00 | 0.00 | 85 | 1012.5 |
| 20260508024204 | 41 | 255 | 0.0 | 0.0 | 0.00 | 0.00 | 0.00 | 84 | 1012.4 |
| 20260508023204 | 41 | 255 | 0.0 | 0.0 | 0.00 | 0.00 | 0.00 | 82 | 1012.4 |
| 20260508022703 | 41 | 255 | 0.0 | 0.0 | 0.00 | 0.00 | 0.00 | 82 | 1012.3 |
| 20260508022204 | 42 | 255 | 0.0 | 0.0 | 0.00 | 0.00 | 0.00 | 81 | 1012.3 |
| 20260508021704 | 42 | 255 | 0.0 | 0.0 | 0.00 | 0.00 | 0.00 | 80 | 1012.3 |
| 20260508021203 | 42 | 255 | 0.0 | 0.0 | 0.00 | 0.00 | 0.00 | 78 | 1012.2 |
| 20260508020704 | 43 | 255 | 0.0 | 0.0 | 0.00 | 0.00 | 0.00 | 76 | 1012.2 |
| 20260508020204 | 43 | 255 | 0.0 | 0.0 | 0.00 | 0.00 | 0.00 | 76 | 1012.1 |
| 20260508015703 | 44 | 255 | 0.0 | 0.0 | 0.00 | 0.00 | 0.00 | 76 | 1012.1 |
| 20260508015203 | 44 | 255 | 0.0 | 0.0 | 0.00 | 0.00 | 0.00 | 73 | 1012.0 |
| 20260508014204 | 45 | 255 | 0.0 | 0.0 | 0.00 | 0.00 | 0.00 | 71 | 1011.9 |
| 20260508013703 | 45 | 255 | 0.0 | 0.0 | 0.00 | 0.00 | 0.00 | 72 | 1011.9 |
| 20260508013205 | 46 | 255 | 0.0 | 0.0 | 0.00 | 0.00 | 0.00 | 70 | 1011.9 |
| 20260508012704 | 46 | 255 | 0.0 | 0.0 | 0.00 | 0.00 | 0.00 | 69 | 1011.8 |
| 20260508011704 | 47 | 255 | 0.0 | 0.0 | 0.00 | 0.00 | 0.00 | 67 | 1011.7 |
| 20260508011204 | 47 | 255 | 0.0 | 0.0 | 0.00 | 0.00 | 0.00 | 65 | 1011.6 |
| 20260508010703 | 48 | 255 | 0.0 | 0.0 | 0.00 | 0.00 | 0.00 | 62 | 1011.6 |
| 20260508005704 | 49 | 255 | 0.0 | 0.0 | 0.00 | 0.00 | 0.00 | 58 | 1011.5 |
| 20260508005204 | 49 | 255 | 0.0 | 0.0 | 0.00 | 0.00 | 0.00 | 57 | 1011.4 |
| 20260508004705 | 49 | 255 | 0.0 | 0.0 | 0.00 | 0.00 | 0.00 | 57 | 1011.4 |
| 20260508004203 | 49 | 255 | 0.0 | 0.0 | 0.00 | 0.00 | 0.00 | 57 | 1011.3 |
| 20260508003704 | 50 | 255 | 0.0 | 0.0 | 0.00 | 0.00 | 0.00 | 56 | 1011.2 |
| 20260508003204 | 50 | 255 | 0.0 | 0.0 | 0.00 | 0.00 | 0.00 | 56 | 1011.1 |
| 20260508002704 | 51 | 255 | 0.0 | 0.0 | 0.00 | 0.00 | 0.00 | 55 | 1011.0 |
| 20260508002204 | 51 | 279 | 0.0 | 0.0 | 0.00 | 0.00 | 0.00 | 56 | 1011.0 |
| 20260508001704 | 51 | 257 | 0.0 | 0.0 | 0.00 | 0.00 | 0.00 | 56 | 1011.0 |
| 20260508001203 | 51 | 219 | 0.0 | 0.0 | 0.00 | 0.00 | 0.00 | 55 | 1011.0 |
| 20260508000705 | 52 | 219 | 0.0 | 0.0 | 0.00 | 0.00 | 0.00 | 56 | 1010.9 |
| 20260508000205 | 52 | 218 | 0.0 | 0.0 | 0.00 | 0.00 | 0.00 | 54 | 1010.8 |
| 20260507235704 | 52 | 253 | 0.0 | 0.0 | 0.00 | 0.00 | 0.00 | 53 | 1010.7 |
| 20260507235204 | 53 | 253 | 0.0 | 0.0 | 0.00 | 0.00 | 0.00 | 52 | 1010.6 |
| 20260507234703 | 53 | 236 | 0.0 | 0.0 | 0.00 | 0.00 | 0.00 | 52 | 1010.6 |
| 20260507234203 | 53 | 235 | 0.0 | 0.0 | 0.00 | 0.00 | 0.00 | 52 | 1010.6 |
| 20260507233203 | 54 | 258 | 0.0 | 0.0 | 0.00 | 0.00 | 0.00 | 50 | 1010.5 |
| 20260507232704 | 54 | 231 | 0.0 | 0.0 | 0.00 | 0.00 | 0.00 | 50 | 1010.5 |
| 20260507232203 | 55 | 213 | 0.0 | 0.0 | 0.00 | 0.00 | 0.00 | 50 | 1010.4 |
| 20260507231203 | 55 | 227 | 0.0 | 0.0 | 0.00 | 0.00 | 0.00 | 47 | 1010.3 |
| 20260507230704 | 56 | 274 | 0.0 | 0.0 | 0.00 | 0.00 | 0.00 | 49 | 1010.4 |
| 20260507230204 | 56 | 269 | 0.0 | 0.0 | 0.00 | 0.00 | 0.00 | 49 | 1010.4 |
| 20260507225704 | 57 | 243 | 0.0 | 0.0 | 0.00 | 0.00 | 0.00 | 47 | 1010.3 |
| 20260507225203 | 58 | 229 | 0.0 | 0.0 | 0.00 | 0.00 | 0.00 | 46 | 1010.3 |
| 20260507224204 | 59 | 226 | 0.0 | 0.0 | 0.00 | 0.00 | 0.00 | 46 | 1010.2 |
| 20260507223203 | 60 | 87 | 0.0 | 0.0 | 0.00 | 0.00 | 0.00 | 46 | 1010.1 |
| 20260507221704 | 59 | 252 | 0.0 | 0.0 | 0.00 | 0.00 | 0.00 | 45 | 1009.9 |
| 20260507221204 | 59 | 244 | 0.0 | 0.0 | 0.00 | 0.00 | 0.00 | 48 | 1009.9 |
| 20260507220204 | 60 | 241 | 0.0 | 0.0 | 0.00 | 0.00 | 0.00 | 46 | 1009.7 |
| 20260507215704 | 59 | 216 | 0.0 | 0.0 | 0.00 | 0.00 | 0.00 | 46 | 1009.5 |
| 20260507215205 | 58 | 245 | 0.0 | 0.0 | 0.00 | 0.00 | 0.00 | 47 | 1009.6 |
| 20260507214704 | 59 | 256 | 0.0 | 0.0 | 0.00 | 0.00 | 0.00 | 43 | 1009.5 |
| 20260507213704 | 60 | 274 | 0.0 | 1.0 | 0.00 | 0.00 | 0.00 | 40 | 1009.3 |
| 20260507213204 | 60 | 257 | 0.0 | 0.0 | 0.00 | 0.00 | 0.00 | 44 | 1009.3 |
| 20260507212703 | 60 | 235 | 0.0 | 1.0 | 0.00 | 0.00 | 0.00 | 41 | 1009.2 |
| 20260507212203 | 60 | 235 | 0.0 | 0.0 | 0.00 | 0.00 | 0.00 | 41 | 1009.2 |
| 20260507210704 | 61 | 255 | 0.0 | 1.0 | 0.00 | 0.00 | 0.00 | 41 | 1009.2 |
| 20260507205703 | 61 | 263 | 0.0 | 0.0 | 0.00 | 0.00 | 0.00 | 42 | 1009.0 |
| 20260507205204 | 61 | 232 | 0.0 | 0.0 | 0.00 | 0.00 | 0.00 | 42 | 1009.0 |
| 20260507204704 | 61 | 123 | 0.0 | 0.0 | 0.00 | 0.00 | 0.00 | 43 | 1009.0 |
| 20260507203704 | 62 | 202 | 0.0 | 0.0 | 0.00 | 0.00 | 0.00 | 41 | 1009.0 |
| 20260507203203 | 62 | 291 | 0.0 | 0.0 | 0.00 | 0.00 | 0.00 | 41 | 1009.2 |
| 20260507202703 | 63 | 225 | 0.0 | 0.0 | 0.00 | 0.00 | 0.00 | 39 | 1009.2 |
| 20260507201204 | 63 | 281 | 0.0 | 0.0 | 0.00 | 0.00 | 0.00 | 39 | 1009.2 |
| 20260507200704 | 62 | 224 | 0.0 | 0.0 | 0.00 | 0.00 | 0.00 | 41 | 1009.3 |
| 20260507200204 | 62 | 186 | 0.0 | 0.0 | 0.00 | 0.00 | 0.00 | 41 | 1009.4 |
| 20260507195703 | 62 | 103 | 0.0 | 0.0 | 0.00 | 0.00 | 0.00 | 41 | 1009.3 |
| 20260507195204 | 62 | 239 | 0.0 | 3.0 | 0.00 | 0.00 | 0.00 | 39 | 1009.5 |
| 20260507194704 | 62 | 252 | 1.0 | 6.0 | 0.00 | 0.00 | 0.00 | 36 | 1009.5 |
| 20260507194204 | 63 | 276 | 0.0 | 2.0 | 0.00 | 0.00 | 0.00 | 38 | 1009.6 |
| 20260507193203 | 64 | 245 | 0.0 | 1.0 | 0.00 | 0.00 | 0.00 | 36 | 1009.5 |
| 20260507192703 | 64 | 239 | 0.0 | 0.0 | 0.00 | 0.00 | 0.00 | 40 | 1009.6 |
| 20260507192203 | 64 | 286 | 0.0 | 6.0 | 0.00 | 0.00 | 0.00 | 37 | 1009.5 |
| 20260507191204 | 64 | 249 | 0.0 | 1.0 | 0.00 | 0.00 | 0.00 | 39 | 1009.6 |
| 20260507190705 | 64 | 229 | 0.0 | 0.0 | 0.00 | 0.00 | 0.00 | 37 | 1009.5 |
| 20260507190203 | 64 | 240 | 0.0 | 1.0 | 0.00 | 0.00 | 0.00 | 39 | 1009.5 |
| 20260507185703 | 64 | 231 | 0.0 | 2.0 | 0.00 | 0.00 | 0.00 | 40 | 1009.5 |
| 20260507185205 | 64 | 278 | 0.0 | 0.0 | 0.00 | 0.00 | 0.00 | 39 | 1009.5 |
| 20260507184703 | 64 | 243 | 0.0 | 0.0 | 0.00 | 0.00 | 0.00 | 41 | 1009.5 |
| 20260507184204 | 64 | 203 | 0.0 | 3.0 | 0.00 | 0.00 | 0.00 | 34 | 1009.6 |
| 20260507183703 | 64 | 156 | 0.0 | 0.0 | 0.00 | 0.00 | 0.00 | 38 | 1009.7 |
| 20260507183203 | 63 | 228 | 0.0 | 1.0 | 0.00 | 0.00 | 0.00 | 40 | 1009.7 |
| 20260507182703 | 64 | 211 | 1.0 | 6.0 | 0.00 | 0.00 | 0.00 | 41 | 1009.7 |
| 20260507182204 | 64 | 166 | 0.0 | 0.0 | 0.00 | 0.00 | 0.00 | 39 | 1009.6 |
| 20260507181704 | 63 | 292 | 0.0 | 1.0 | 0.00 | 0.00 | 0.00 | 41 | 1009.7 |
| 20260507181204 | 63 | 241 | 0.0 | 3.0 | 0.00 | 0.00 | 0.00 | 40 | 1009.8 |
| 20260507180703 | 63 | 295 | 0.0 | 0.0 | 0.00 | 0.00 | 0.00 | 40 | 1009.8 |
| 20260507180203 | 63 | 235 | 0.0 | 2.0 | 0.00 | 0.00 | 0.00 | 38 | 1010.0 |
| 20260507175703 | 62 | 242 | 0.0 | 0.0 | 0.00 | 0.00 | 0.00 | 42 | 1010.0 |
| 20260507175203 | 62 | 251 | 0.0 | 1.0 | 0.00 | 0.00 | 0.00 | 41 | 1010.1 |
| 20260507174703 | 61 | 200 | 0.0 | 5.0 | 0.00 | 0.00 | 0.00 | 44 | 1010.1 |
| 20260507174204 | 61 | 271 | 0.0 | 3.0 | 0.00 | 0.00 | 0.00 | 41 | 1010.2 |
| 20260507173704 | 61 | 297 | 0.0 | 3.0 | 0.00 | 0.00 | 0.00 | 41 | 1010.2 |
| 20260507173204 | 62 | 276 | 0.0 | 0.0 | 0.00 | 0.00 | 0.00 | 44 | 1010.2 |
| 20260507172705 | 61 | 185 | 0.0 | 0.0 | 0.00 | 0.00 | 0.00 | 44 | 1010.3 |
| 20260507172204 | 61 | 211 | 0.0 | 0.0 | 0.00 | 0.00 | 0.00 | 44 | 1010.3 |
| 20260507171703 | 61 | 211 | 0.0 | 3.0 | 0.00 | 0.00 | 0.00 | 44 | 1010.3 |
| 20260507171203 | 60 | 307 | 0.0 | 0.0 | 0.00 | 0.00 | 0.00 | 46 | 1010.4 |
| 20260507170203 | 60 | 273 | 0.0 | 5.0 | 0.00 | 0.00 | 0.00 | 42 | 1010.4 |
| 20260507165205 | 60 | 229 | 0.0 | 0.0 | 0.00 | 0.00 | 0.00 | 44 | 1010.5 |
| 20260507164704 | 60 | 200 | 0.0 | 1.0 | 0.00 | 0.00 | 0.00 | 45 | 1010.6 |
| 20260507164204 | 61 | 184 | 0.0 | 0.0 | 0.00 | 0.00 | 0.00 | 41 | 1010.5 |
| 20260507163703 | 61 | 298 | 0.0 | 2.0 | 0.00 | 0.00 | 0.00 | 48 | 1010.6 |
| 20260507163204 | 60 | 210 | 0.0 | 0.0 | 0.00 | 0.00 | 0.00 | 45 | 1010.5 |
| 20260507162704 | 61 | 287 | 0.0 | 3.0 | 0.00 | 0.00 | 0.00 | 45 | 1010.5 |
| 20260507162204 | 61 | 225 | 0.0 | 3.0 | 0.00 | 0.00 | 0.00 | 42 | 1010.6 |
| 20260507161704 | 60 | 214 | 0.0 | 1.0 | 0.00 | 0.00 | 0.00 | 45 | 1010.5 |
| 20260507161203 | 60 | 293 | 0.0 | 0.0 | 0.00 | 0.00 | 0.00 | 48 | 1010.6 |
| 20260507160703 | 59 | 201 | 0.0 | 1.0 | 0.00 | 0.00 | 0.00 | 47 | 1010.7 |
| 20260507160204 | 58 | 232 | 0.0 | 5.0 | 0.00 | 0.00 | 0.00 | 50 | 1010.7 |
| 20260507155205 | 58 | 281 | 0.0 | 0.0 | 0.00 | 0.00 | 0.00 | 46 | 1010.8 |
| 20260507154703 | 59 | 240 | 0.0 | 0.0 | 0.00 | 0.00 | 0.00 | 48 | 1010.8 |
| 20260507154204 | 58 | 199 | 0.0 | 1.0 | 0.00 | 0.00 | 0.00 | 48 | 1010.9 |
| 20260507153704 | 58 | 283 | 0.0 | 3.0 | 0.00 | 0.00 | 0.00 | 49 | 1010.8 |
| 20260507153204 | 58 | 229 | 0.0 | 1.0 | 0.00 | 0.00 | 0.00 | 49 | 1010.9 |
| 20260507152703 | 58 | 212 | 1.0 | 6.0 | 0.00 | 0.00 | 0.00 | 49 | 1011.0 |
| 20260507152204 | 57 | 225 | 0.0 | 0.0 | 0.00 | 0.00 | 0.00 | 51 | 1011.0 |
| 20260507151704 | 56 | 234 | 0.0 | 0.0 | 0.00 | 0.00 | 0.00 | 51 | 1011.1 |
| 20260507151204 | 56 | 205 | 0.0 | 1.0 | 0.00 | 0.00 | 0.00 | 53 | 1011.1 |
| 20260507150704 | 56 | 345 | 0.0 | 0.0 | 0.00 | 0.00 | 0.00 | 54 | 1011.1 |
| 20260507150204 | 55 | 275 | 0.0 | 0.0 | 0.00 | 0.00 | 0.00 | 56 | 1011.2 |
| 20260507145704 | 55 | 269 | 0.0 | 2.0 | 0.00 | 0.00 | 0.00 | 54 | 1011.3 |
| 20260507145203 | 55 | 285 | 0.0 | 1.0 | 0.00 | 0.00 | 0.00 | 53 | 1011.4 |
| 20260507144704 | 55 | 238 | 0.0 | 1.0 | 0.00 | 0.00 | 0.00 | 53 | 1011.4 |
| 20260507144203 | 55 | 247 | 0.0 | 1.0 | 0.00 | 0.00 | 0.00 | 57 | 1011.4 |
| 20260507143704 | 54 | 264 | 0.0 | 0.0 | 0.00 | 0.00 | 0.00 | 58 | 1011.5 |
| 20260507143204 | 54 | 296 | 0.0 | 0.0 | 0.00 | 0.00 | 0.00 | 59 | 1011.5 |
| 20260507142203 | 54 | 199 | 0.0 | 0.0 | 0.00 | 0.00 | 0.00 | 63 | 1011.6 |
| 20260507141204 | 54 | 291 | 0.0 | 3.0 | 0.00 | 0.00 | 0.00 | 62 | 1011.9 |
| 20260507140704 | 54 | 256 | 0.0 | 0.0 | 0.00 | 0.00 | 0.00 | 65 | 1011.9 |
| 20260507140204 | 53 | 210 | 0.0 | 0.0 | 0.00 | 0.00 | 0.00 | 66 | 1012.0 |
| 20260507135704 | 53 | 237 | 0.0 | 0.0 | 0.00 | 0.00 | 0.00 | 65 | 1012.0 |
| 20260507135204 | 53 | 267 | 0.0 | 2.0 | 0.00 | 0.00 | 0.00 | 65 | 1012.1 |
| 20260507134204 | 52 | 221 | 0.0 | 0.0 | 0.00 | 0.00 | 0.00 | 68 | 1012.1 |
| 20260507133703 | 52 | 221 | 0.0 | 0.0 | 0.00 | 0.00 | 0.00 | 65 | 1012.2 |
| 20260507133204 | 52 | 265 | 0.0 | 1.0 | 0.00 | 0.00 | 0.00 | 65 | 1012.2 |
| 20260507132703 | 52 | 243 | 0.0 | 0.0 | 0.00 | 0.01 | 0.00 | 66 | 1012.2 |
| 20260507132204 | 52 | 248 | 0.0 | 0.0 | 0.00 | 0.01 | 0.00 | 66 | 1012.3 |
| 20260507131703 | 52 | 201 | 0.0 | 0.0 | 0.00 | 0.01 | 0.00 | 68 | 1012.3 |
| 20260507131204 | 51 | 240 | 0.0 | 0.0 | 0.00 | 0.01 | 0.00 | 69 | 1012.2 |
| 20260507130704 | 51 | 195 | 0.0 | 0.0 | 0.00 | 0.01 | 0.00 | 70 | 1012.2 |
| 20260507130203 | 51 | 211 | 0.0 | 0.0 | 0.00 | 0.02 | 0.00 | 67 | 1012.2 |
| 20260507125704 | 51 | 205 | 0.0 | 0.0 | 0.00 | 0.03 | 0.00 | 71 | 1012.3 |
| 20260507125204 | 51 | 217 | 0.0 | 0.0 | 0.00 | 0.04 | 0.00 | 73 | 1012.4 |
| 20260507124704 | 50 | 209 | 0.0 | 0.0 | 0.00 | 0.04 | 0.00 | 73 | 1012.3 |
| 20260507124204 | 50 | 203 | 0.0 | 0.0 | 0.00 | 0.04 | 0.00 | 74 | 1012.4 |
| 20260507123205 | 49 | 197 | 0.0 | 0.0 | 0.00 | 0.04 | 0.00 | 80 | 1012.4 |
| 20260507122705 | 49 | 197 | 0.0 | 0.0 | 0.00 | 0.04 | 0.00 | 81 | 1012.5 |
| 20260507122205 | 49 | 234 | 0.0 | 0.0 | 0.00 | 0.04 | 0.00 | 84 | 1012.5 |
| 20260507121704 | 48 | 249 | 0.0 | 0.0 | 0.00 | 0.04 | 0.00 | 89 | 1012.4 |
| 20260507121204 | 48 | 256 | 0.0 | 0.0 | 0.00 | 0.04 | 0.00 | 90 | 1012.4 |
| 20260507120703 | 48 | 257 | 0.0 | 0.0 | 0.00 | 0.05 | 0.00 | 94 | 1012.4 |
| 20260507120205 | 47 | 257 | 0.0 | 0.0 | 0.00 | 0.05 | 0.00 | 95 | 1012.4 |
| 20260507115703 | 46 | 257 | 0.0 | 0.0 | 0.00 | 0.06 | 0.00 | 98 | 1012.4 |
| 20260507114704 | 43 | 257 | 0.0 | 0.0 | 0.00 | 0.07 | 0.00 | 98 | 1012.5 |
| 20260507113703 | 40 | 257 | 0.0 | 0.0 | 0.00 | 0.08 | 0.00 | 98 | 1012.5 |
| 20260507113204 | 39 | 257 | 0.0 | 0.0 | 0.00 | 0.08 | 0.00 | 98 | 1012.5 |
| 20260507112704 | 37 | 257 | 0.0 | 0.0 | 0.00 | 0.08 | 0.00 | 97 | 1012.3 |
| 20260507112203 | 36 | 257 | 0.0 | 0.0 | 0.00 | 0.08 | 0.00 | 97 | 1012.3 |
| 20260507111705 | 36 | 257 | 0.0 | 0.0 | 0.00 | 0.08 | 0.00 | 97 | 1012.3 |
| 20260507111204 | 36 | 257 | 0.0 | 0.0 | 0.00 | 0.08 | 0.00 | 98 | 1012.3 |
| 20260507110703 | 35 | 257 | 0.0 | 0.0 | 0.00 | 0.08 | 0.00 | 98 | 1012.2 |
| 20260507110203 | 34 | 257 | 0.0 | 0.0 | 0.00 | 0.08 | 0.00 | 98 | 1012.2 |
| 20260507105705 | 34 | 257 | 0.0 | 0.0 | 0.00 | 0.08 | 0.00 | 97 | 1012.2 |
| 20260507105204 | 33 | 257 | 0.0 | 0.0 | 0.00 | 0.08 | 0.00 | 97 | 1012.1 |
| 20260507104204 | 33 | 257 | 0.0 | 0.0 | 0.00 | 0.08 | 0.00 | 97 | 1012.1 |
| 20260507103704 | 33 | 257 | 0.0 | 0.0 | 0.00 | 0.08 | 0.00 | 97 | 1012.1 |
| 20260507102203 | 33 | 257 | 0.0 | 0.0 | 0.00 | 0.09 | 0.00 | 97 | 1012.0 |
| 20260507101704 | 33 | 257 | 0.0 | 0.0 | 0.00 | 0.09 | 0.00 | 97 | 1011.9 |
| 20260507101204 | 33 | 257 | 0.0 | 0.0 | 0.00 | 0.10 | 0.00 | 97 | 1011.8 |
| 20260507100703 | 33 | 257 | 0.0 | 0.0 | 0.00 | 0.10 | 0.00 | 97 | 1011.8 |
| 20260507100203 | 33 | 257 | 0.0 | 0.0 | 0.00 | 0.11 | 0.00 | 97 | 1011.8 |
| 20260507095704 | 33 | 257 | 0.0 | 0.0 | 0.00 | 0.11 | 0.00 | 97 | 1011.8 |
| 20260507095204 | 34 | 257 | 0.0 | 0.0 | 0.00 | 0.12 | 0.00 | 97 | 1011.8 |
| 20260507094704 | 34 | 257 | 0.0 | 0.0 | 0.00 | 0.13 | 0.00 | 97 | 1011.8 |
| 20260507094204 | 34 | 257 | 0.0 | 0.0 | 0.00 | 0.15 | 0.00 | 97 | 1011.7 |
| 20260507093704 | 34 | 257 | 0.0 | 0.0 | 0.00 | 0.15 | 0.00 | 97 | 1011.7 |
| 20260507093204 | 34 | 257 | 0.0 | 0.0 | 0.00 | 0.16 | 0.00 | 97 | 1011.8 |
| 20260507092703 | 34 | 257 | 0.0 | 0.0 | 0.00 | 0.16 | 0.00 | 96 | 1011.7 |
| 20260507092203 | 34 | 257 | 0.0 | 0.0 | 0.00 | 0.16 | 0.00 | 96 | 1011.7 |
| 20260507091704 | 34 | 257 | 0.0 | 0.0 | 0.00 | 0.16 | 0.00 | 96 | 1011.8 |
| 20260507091204 | 34 | 257 | 0.0 | 0.0 | 0.00 | 0.17 | 0.00 | 96 | 1011.8 |
| 20260507090703 | 34 | 257 | 0.0 | 0.0 | 0.00 | 0.17 | 0.00 | 96 | 1011.9 |
| 20260507090204 | 35 | 257 | 0.0 | 0.0 | 0.00 | 0.17 | 0.00 | 96 | 1011.9 |
| 20260507085703 | 35 | 257 | 0.0 | 0.0 | 0.00 | 0.17 | 0.00 | 96 | 1011.9 |
| 20260507085204 | 35 | 257 | 0.0 | 0.0 | 0.00 | 0.18 | 0.00 | 96 | 1011.8 |
| 20260507084704 | 35 | 257 | 0.0 | 0.0 | 0.00 | 0.19 | 0.00 | 96 | 1011.9 |
| 20260507084204 | 35 | 257 | 0.0 | 0.0 | 0.00 | 0.21 | 0.00 | 96 | 1011.8 |
| 20260507083704 | 35 | 257 | 0.0 | 0.0 | 0.00 | 0.22 | 0.00 | 96 | 1011.8 |
| 20260507083204 | 35 | 257 | 0.0 | 0.0 | 0.00 | 0.22 | 0.00 | 96 | 1011.9 |
| 20260507082703 | 35 | 257 | 0.0 | 0.0 | 0.00 | 0.24 | 0.00 | 96 | 1011.9 |
| 20260507082204 | 36 | 257 | 0.0 | 0.0 | 0.00 | 0.25 | 0.00 | 96 | 1011.9 |
| 20260507081703 | 36 | 257 | 0.0 | 0.0 | 0.00 | 0.27 | 0.00 | 96 | 1011.8 |
| 20260507081203 | 36 | 257 | 0.0 | 0.0 | 0.00 | 0.28 | 0.00 | 96 | 1011.8 |
| 20260507080704 | 36 | 257 | 0.0 | 0.0 | 0.00 | 0.29 | 0.00 | 96 | 1011.9 |
| 20260507080204 | 36 | 257 | 0.0 | 0.0 | 0.00 | 0.30 | 0.00 | 96 | 1011.9 |
| 20260507075204 | 37 | 257 | 0.0 | 0.0 | 0.00 | 0.31 | 0.00 | 96 | 1011.9 |
| 20260507074704 | 37 | 257 | 0.0 | 0.0 | 0.00 | 0.32 | 0.00 | 95 | 1011.9 |
| 20260507074204 | 37 | 257 | 0.0 | 0.0 | 0.00 | 0.32 | 0.00 | 95 | 1011.9 |
| 20260507073704 | 37 | 257 | 0.0 | 0.0 | 0.00 | 0.33 | 0.00 | 95 | 1011.9 |
| 20260507073204 | 38 | 257 | 0.0 | 0.0 | 0.00 | 0.33 | 0.00 | 95 | 1011.9 |
| 20260507072704 | 38 | 257 | 0.0 | 0.0 | 0.00 | 0.34 | 0.00 | 95 | 1011.9 |
| 20260507072204 | 38 | 257 | 0.0 | 0.0 | 0.00 | 0.34 | 0.00 | 95 | 1011.9 |
| 20260507071704 | 38 | 257 | 0.0 | 0.0 | 0.00 | 0.34 | 0.00 | 95 | 1011.9 |
| 20260507071205 | 39 | 257 | 0.0 | 0.0 | 0.00 | 0.34 | 0.00 | 94 | 1011.8 |
| 20260507070704 | 39 | 257 | 0.0 | 0.0 | 0.00 | 0.34 | 0.00 | 95 | 1011.8 |
| 20260507070203 | 39 | 257 | 0.0 | 0.0 | 0.00 | 0.34 | 0.00 | 95 | 1011.9 |
| 20260507065703 | 39 | 257 | 0.0 | 0.0 | 0.00 | 0.34 | 0.00 | 94 | 1012.0 |
| 20260507065204 | 40 | 257 | 0.0 | 0.0 | 0.00 | 0.34 | 0.00 | 94 | 1012.0 |
| 20260507064704 | 40 | 257 | 0.0 | 0.0 | 0.00 | 0.34 | 0.00 | 94 | 1012.0 |
| 20260507063204 | 41 | 257 | 0.0 | 0.0 | 0.00 | 0.34 | 0.00 | 93 | 1012.0 |
| 20260507062704 | 41 | 257 | 0.0 | 0.0 | 0.00 | 0.34 | 0.00 | 92 | 1012.0 |
| 20260507061703 | 41 | 257 | 0.0 | 0.0 | 0.00 | 0.34 | 0.00 | 92 | 1012.1 |
| 20260507061204 | 42 | 257 | 0.0 | 0.0 | 0.00 | 0.34 | 0.00 | 92 | 1012.1 |
| 20260507060203 | 42 | 257 | 0.0 | 0.0 | 0.00 | 0.34 | 0.00 | 92 | 1012.2 |
| 20260507055703 | 43 | 257 | 0.0 | 0.0 | 0.00 | 0.34 | 0.00 | 92 | 1012.3 |
| 20260507055204 | 43 | 257 | 0.0 | 0.0 | 0.00 | 0.34 | 0.00 | 91 | 1012.3 |
| 20260507054704 | 43 | 257 | 0.0 | 0.0 | 0.00 | 0.35 | 0.00 | 90 | 1012.4 |
| 20260507053704 | 43 | 257 | 0.0 | 0.0 | 0.00 | 0.36 | 0.00 | 90 | 1012.3 |
| 20260507053204 | 43 | 257 | 0.0 | 0.0 | 0.00 | 0.36 | 0.00 | 90 | 1012.3 |
| 20260507052703 | 44 | 257 | 0.0 | 0.0 | 0.00 | 0.37 | 0.00 | 90 | 1012.4 |
| 20260507052204 | 44 | 257 | 0.0 | 0.0 | 0.00 | 0.37 | 0.00 | 90 | 1012.4 |
| 20260507050704 | 44 | 257 | 0.0 | 0.0 | 0.00 | 0.38 | 0.00 | 89 | 1012.5 |
| 20260507045703 | 44 | 257 | 0.0 | 0.0 | 0.00 | 0.39 | 0.00 | 88 | 1012.7 |
| 20260507045204 | 44 | 257 | 0.0 | 0.0 | 0.00 | 0.39 | 0.00 | 86 | 1012.8 |